Location: Atlantic Beach
(40.5890°N, 73.7290°W)
Time: 00:30:21
(UTC+00:00)

Envisat - Pass Details

Date: 22 January 2021
Orbit: 764 x 766 km, 98.1° (Epoch: 03 March)

Event Time Altitude Azimuth Distance (km) Brightness Sun altitude
Rises 11:26:42 0° 3° (N) 3,241 6.1 -8.9°
Reaches altitude 10° 11:29:10 10° 355° (N) 2,310 5.3 -8.5°
Maximum altitude 11:33:46 36° 291° (WNW) 1,208 3.5 -7.7°
Drops below altitude 10° 11:38:21 10° 226° (SW) 2,295 5.2 -6.8°
Sets 11:40:48 0° 218° (SW) 3,217 6.0 -6.4°
